Regional Weather Roundup
Issued by NWS

Home | Current Version | Previous Version | Text Only | Print | Product List | Glossary On
Versions: 1 2 3 4 5 6 7 8 9 10 11 12 13 14 15 16 17 18 19 20 21 22 23 24 25 26 27 28 29 30 31 32 33 34 35 36 37 38 39 40 41 42 43 44 45 46 47 48 49 50
000
ASUS43 KMPX 251801
RWRMN
WEATHER ROUNDUP FOR MINNESOTA
NATIONAL WEATHER SERVICE TWIN CITIES/CHANHASSEN MN
100 PM CDT SAT MAR 25 2017


NOTE: "FAIR" INDICATES FEW OR NO CLOUDS BELOW 12,000 FEET WITH NO
SIGNIFICANT WEATHER AND/OR OBSTRUCTIONS TO VISIBILITY. N/A MEANS
CURRENT SKY AND/OR WEATHER CONDITIONS ARE NOT AVAILABLE.

MNZ060>063-068>070-251900-
   Twin Cities Metro

CITY           SKY/WX    TMP DP  RH WIND       PRES   REMARKS
TWIN CITIES    CLOUDY    41  31  67 E13       30.16S
6HR MIN TEMP:  37; 6HR MAX TEMP:  42;

ST PAUL        CLOUDY    40  33  76 E13       30.18S
CRYSTAL        CLOUDY    41  30  65 E12       30.15F
BLAINE         CLOUDY    43  36  75 E14G20    30.15F
LAKEVILLE      CLOUDY    37  34  87 NE12      30.13F
EDEN PRAIRIE   CLOUDY    41  32  70 NE16      30.14R
6HR MIN TEMP:  38; 6HR MAX TEMP:  42;

SOUTH ST PAUL  CLOUDY    40  32  72 E12G18    30.16R
LAKE ELMO      CLOUDY    39  34  81 E12       30.17S
$$
MNZ001>005-007-008-013>017-022>024-027-028-251900-
   Northwest Minnesota

CITY           SKY/WX    TMP DP  RH WIND       PRES   REMARKS
BEMIDJI        FAIR      39  29  67 SE15      30.16F
HALLOCK        CLOUDY    37  34  87 S16       30.14S
ROSEAU         FAIR      39  30  70 S14       30.15F
WARROAD        FAIR      39  30  70 SE17      30.17F
THIEF RVR FALL CLOUDY   N/A N/A N/A SE12      30.16
CROOKSTON      CLOUDY    37  34  87 S15       30.15F
FOSSTON        FAIR      41  34  75 SE9       30.15F
DETROIT LAKES  FAIR      41  32  70 SE15G21   30.14F
MOORHEAD       CLOUDY    36  30  80 S9        30.16F
PARK RAPIDS    FAIR      40  26  57 SE13      30.15F
MAHNOMEN       FAIR      40  30  67 SE12G20   30.14F
$$
MNZ006-009>011-018-025>026-251900-
   North Central Minnesota

CITY           SKY/WX    TMP DP  RH WIND       PRES   REMARKS
BAUDETTE       PTSUNNY   40  28  62 SE16      30.18F
FLAG ISLAND    CLOUDY    34  30  86 S16       30.18F WCI  23
INTL FALLS     CLOUDY    37  27  67 SE13G20   30.23F
6HR MIN TEMP:  33; 6HR MAX TEMP:  37;

WASKISH        FAIR      41  28  60 SE10G16   30.19F
BIG FORK       CLOUDY    37  27  65 SE8G17    30.21F
LONGVILLE      CLOUDY    39  28  65 E9G17     30.18F
GRAND RAPIDS   CLOUDY    35  27  72 SE10G21   30.22F WCI  27
CRANE LAKE     PTSUNNY   36  23  60 E5G16     30.27F
ORR            CLOUDY    34  21  60 E3        30.22F
COOK           CLOUDY    34  25  69 E8        30.24F WCI  27
WALKER         CLOUDY    36  28  71 E8        30.17F
$$
MNZ012-019>021-037-251900-
   Northeast Minnesota

CITY           SKY/WX    TMP DP  RH WIND       PRES   REMARKS
DULUTH         CLOUDY    34  30  85 E17G25    30.23F WCI  23
6HR MIN TEMP:  32; 6HR MAX TEMP:  34;

ELY            CLOUDY    34  25  69 SE10      30.26F WCI  26
HIBBING        CLOUDY    34  27  75 E13       30.23F WCI  25
EVELETH        PTSUNNY   35  26  70 SE10G16   30.25F WCI  27
DULUTH HARBOR  CLOUDY    36  32  87 NE24      30.27F
TWO HARBORS    CLOUDY    36  28  75 E15G28    30.26S
SILVER BAY     CLOUDY    34  28  80 E13G20    30.28S WCI  25
GRAND MARAIS     N/A     33  25  72 E15G23    30.36F WCI  23
G MARAIS ARPRT FAIR      32  12  43 E10       30.29F WCI  24
$$
MNZ029>031-032-039>041-046>048-054>057-064-251900-
   West Central Minnesota

CITY           SKY/WX    TMP DP  RH WIND       PRES   REMARKS
FERGUS FALLS   CLOUDY    36  28  75 SE9       30.19F
WHEATON        CLOUDY    36  30  80 SE12      30.17F
MORRIS         PTSUNNY   37  30  75 SE14      30.13F
ALEXANDRIA     CLOUDY    37  30  75 E13       30.15F
ELBOW LAKE     CLOUDY    35  30  83 SE10G16   30.16F WCI  27
WADENA         FAIR      39  28  65 E12       30.15S
GLENWOOD       CLOUDY    36  30  80 E12       30.15F
APPLETON       CLOUDY    39  32  75 E10       30.13F
BENSON         CLOUDY    39  30  70 SE12      30.16F
ORTONVILLE     CLOUDY    36  30  80 SE9       30.13F
MADISON        CLOUDY    39  37  93 E9        30.13F
WILLMAR        CLOUDY    37  34  87 E10       30.15F
$$
MNZ033>034-036-042>043-049>051-058-059-251900-
   Central Minnesota

CITY           SKY/WX    TMP DP  RH WIND       PRES   REMARKS
ST CLOUD       CLOUDY    37  31  78 NE8       30.16F
6HR MIN TEMP:  34; 6HR MAX TEMP:  37;

SAUK CENTRE    CLOUDY    36  31  82 E12       30.16F
PAYNESVILLE      N/A     36  32  85 NE12      30.16F
AITKIN         CLOUDY    41  27  56 E12       30.18F
PINE RIVER     FAIR      37  28  70 E15       30.20F
BRAINERD       CLOUDY    38  28  67 E9        30.19F
STAPLES        PTSUNNY   41  27  56 SE13G18   30.16F
LONG PRAIRIE   CLOUDY    36  30  80 NE12G18   30.17F
LITTLE FALLS   CLOUDY    36  30  80 E8        30.19F
LITCHFIELD     CLOUDY    39  34  81 NE12      30.14F
BUFFALO        CLOUDY    39  32  75 N14       30.16F
MAPLE LAKE     CLOUDY    39  33  80 E12       30.17S
HUTCHINSON     CLOUDY    41  36  81 NE14G20   30.14S
$$
MNZ037-044-045-052-053-251900-
   East Central Minnesota

CITY           SKY/WX    TMP DP  RH WIND       PRES   REMARKS
PRINCETON      CLOUDY    39  32  75 NE12      30.17F
MORA           CLOUDY    37  30  75 E6        30.21F
CAMBRIDGE      CLOUDY    41  30  65 E7        30.16F
RUSH CITY      CLOUDY    39  31  73 NE8       30.19F
MOOSE LAKE     CLOUDY    37  30  75 NE9       30.20F
CLOQUET        CLOUDY    36  28  75 E9G21     30.22F
MCGREGOR       CLOUDY    37  30  75 E17       30.21F
$$
MNZ071>073-080-081-089-090-097-098-251900-
   Southwest Minnesota

CITY           SKY/WX    TMP DP  RH WIND       PRES   REMARKS
MONTEVIDEO     CLOUDY    37  34  87 SE12      30.14F
GRANITE FALLS  CLOUDY    41  35  80 NE13      30.14F
CANBY          CLOUDY    38  35  87 CALM      30.13F
MARSHALL       CLOUDY    40  35  83 E14       30.11F
REDWOOD FALLS  CLOUDY    41  34  76 NE10      30.11F
OLIVIA         CLOUDY    39  34  81 E10       30.12F
PIPESTONE      CLOUDY    37  34  87 E10       30.07R
WINDOM         CLOUDY    37  36  93 NE12G18   30.08F
WORTHINGTON    CLOUDY    37  36  96 NE15      30.06F FOG
JACKSON        CLOUDY    37  34  87 NE17      30.07S
TRACY          CLOUDY    38  37  96 NE14      30.10S
SLAYTON        CLOUDY    36  35  99 NE12      30.08F FOG
$$
MNZ065>067-074>077-082>085-091>093-251900-
   South Central Minnesota

CITY           SKY/WX    TMP DP  RH WIND       PRES   REMARKS
MANKATO        CLOUDY    39  35  86 NE18      30.09F
NEW ULM        CLOUDY    39  34  81 NE10G18   30.11F
ST JAMES       CLOUDY    39  36  87 NE13G21   30.09F
FAIRMONT       CLOUDY    39  36  89 NE16      30.07F
GLENCOE        CLOUDY    41  37  84 NE9       30.13R
FARIBAULT      CLOUDY    39  36  87 NE13      30.12F
OWATONNA       CLOUDY    37  34  87 NE18G24   30.09F
WASECA         CLOUDY    37  34  87 NE16G25   30.09F
ALBERT LEA     CLOUDY    37  36  93 NE15      30.06S
$$
MNZ078>079-086>088-094>096-251900-
   Southeast Minnesota

CITY           SKY/WX    TMP DP  RH WIND       PRES   REMARKS
ROCHESTER      CLOUDY    37  34  89 NE17G26   30.08F
6HR MIN TEMP:  35; 6HR MAX TEMP:  37;

RED WING       CLOUDY    41  30  65 E8G17     30.15S
STANTON        CLOUDY    40  34  79 NE14      30.12F
DODGE CENTER   CLOUDY    37  34  87 NE18      30.08F
WINONA         CLOUDY    39  34  81 NE9       30.13F
AUSTIN         CLOUDY    37  34  87 NE16G25   30.05F
PRESTON        CLOUDY    36  33  90 NE13G21   30.07F
$$
ABBREVIATIONS USED IN REMARKS
   TC - TEMPERATURES IN CELSIUS
  WCI - WIND CHILL INDEX
   HX - HEAT INDEX
  VSB - VISIBILITY
$$




USA.gov is the U.S. government's official web portal to all federal, state and local government web resources and services.